Domov               UVHVVR             MKGP            O straneh              
ZDRAVSTVENO VARSTVO RASTLIN
  MREŽA AGROMET. POSTAJ
 ► PROGNOSTIČNA OBVESTILA
AGROMETEOROLOŠKI PODATKI -
ARSO
OBVLADOVANJE TVEGANJ ZARADI
NEUGODNIH VREMENSKIH RAZMER
  ► NARAVNE NESREČE
  ► SUŠA/MOČA
  ► NAMAKANJE
  ► ŽLED (gozdarstvo)
KARTOGRAFSKI PRIKAZI
SPLETNE POVEZAVE
PROJEKTI IN PUBLIKACIJE

AGROMETEOROLOŠKA MREŽA: VREMENSKE POSTAJE IN FENOLOŠKA OPAZOVANJA

Pregled podatkov za lokacijo Zbigovci, meteorološka postaja 25164

Pregled senzorjev na lokaciji

ID Ime Zadnja
vrednost
Datum
zadnje
spremembe
Tip
senzorja
1931 Omočenost lista (U) 0 U 20.6.2018 16:30 A730WET
1930 Padavine (mm) 0 mm 20.6.2018 16:30 Generic 0.2 mm
1932 Relativna vlaga 2 m (% RH) 38,73 % RH 20.6.2018 16:30 Generic 0 - 100 %
1933 Temperatura 2 m (°C) 28,79 °C 20.6.2018 16:30 Generic -40 - +60 °C

Pregled podatkov zadnjih 24 ur

Zap.
št.
Datum in čas Zbigovci
Omočenost
lista
Padavine Relativna
vlaga
2
m
Temperatura
2
m
1 20.6.2018 16:30
2 20.6.2018 16:00
3 20.6.2018 15:30 0 0 38,7 28,8
4 20.6.2018 15:00 0 0 37,4 29
5 20.6.2018 14:30 0 0 41,6 28,1
6 20.6.2018 14:00 0 0 37,1 28,7
7 20.6.2018 13:30 0 0 34,5 28,4
8 20.6.2018 13:00 0 0 38,2 28,1
9 20.6.2018 12:30 0 0 36,9 27,3
10 20.6.2018 12:00 0 0 36,6 27,7
11 20.6.2018 11:30 0 0 38 27
12 20.6.2018 11:00 0 0 42,7 26,8
13 20.6.2018 10:30 0 0 44,1 26,4
14 20.6.2018 10:00 0 0 44,1 25,4
15 20.6.2018 09:30 0 0 46,3 25,2
16 20.6.2018 09:00 0 0 49,6 24,2
17 20.6.2018 08:30 0 0 53,2 23,1
18 20.6.2018 08:00 0 0 57,6 21,9
19 20.6.2018 07:30 0 0 57,2 21,1
20 20.6.2018 07:00 0 0 56,3 21,3
21 20.6.2018 06:30 0 0 54,8 20,7
22 20.6.2018 06:00 0 0 58,1 19,7
23 20.6.2018 05:30 0 0 59,8 18,8
24 20.6.2018 05:00 0 0 61 18,2
25 20.6.2018 04:30 0 0 63,2 17,8
26 20.6.2018 04:00 0 0 61,8 18,4
27 20.6.2018 03:30 0 0 58 18,7
28 20.6.2018 03:00 0 0 57,8 18,8
29 20.6.2018 02:30 0 0 57,7 18,9
30 20.6.2018 02:00 0 0 55,7 19
31 20.6.2018 01:30 0 0 56,9 18,9
32 20.6.2018 01:00 0 0 55,2 19,6
33 20.6.2018 00:30 0 0 53,1 19,9
34 20.6.2018 00:00 0 0 52,2 20,1
35 19.6.2018 23:30 0 0 52,9 20,4
36 19.6.2018 23:00 0 0 53,5 20,5
37 19.6.2018 22:30 0 0 53,2 20,9
38 19.6.2018 22:00 0 0 52,6 20,8
39 19.6.2018 21:30 0 0 53,8 21,1
40 19.6.2018 21:00 0 0 53,6 21,4
41 19.6.2018 20:30 0 0 53 21,6
42 19.6.2018 20:00 0 0 53,4 21,8
43 19.6.2018 19:30 0 0 52 23
44 19.6.2018 19:00 0 0 47,2 24,2
45 19.6.2018 18:30 0 0 44,3 25
46 19.6.2018 18:00 0 0 39,7 25,8
47 19.6.2018 17:30 0 0 38 26,3
48 19.6.2018 17:00 0 0 36,9 26,8
© 2011 Ministrstvo za kmetijstvo, gozdarstvo in prehrano. Vse pravice pridržane.